Terug naar catalogus

BREEZE-M R/B

ActiefHEO
NORAD 33280·ROCKET BODY·🇷🇺 Russia

Gelanceerd Aug 18, 2008 vanaf Baikonur Cosmodrome

Loading…

Volgende Passages (komende 24 uur)

TLE

VersSource: Space-Track

Epoch: Sep 10, 2026, 19:34 UTC

1 33280U 08039C   26253.81578757 -.00000202  00000-0  00000-0 0  9997
2 33280  23.1685 352.2551 5961655  15.0752 356.7917  2.01427693132854

Volg BREEZE-M R/B in realtime met AllMySat

Download on the App Store